Location: Muenchen
(48.1800°N, 11.5800°E)
Time: 18:20:46
(UTC+01:00)

ISS - Visible Passes

Search period start: 18 December 2014 00:00
Search period end: 28 December 2014 00:00
Orbit: 404 x 415 km, 51.6° (Epoch: 18 December)

Date Brightness Start Highest point End Pass type
(mag) Time Alt. Az. Time Alt. Az. Time Alt. Az.
18 Dec -2.9 17:00:40 10° W 17:03:54 53° NNW 17:07:09 10° ENE visible
18 Dec -2.1 18:37:38 10° WNW 18:39:56 35° NW 18:39:56 35° NW visible
19 Dec -2.7 17:46:52 10° WNW 17:50:03 43° N 17:51:19 28° NE visible
19 Dec -0.1 19:23:34 10° WNW 19:24:04 14° WNW 19:24:04 14° WNW visible
20 Dec -2.7 16:56:01 10° WNW 16:59:12 44° N 17:02:23 10° ENE visible
20 Dec -2.7 18:32:49 10° WNW 18:35:27 49° NW 18:35:27 49° NW visible
21 Dec -3.0 17:42:00 10° WNW 17:45:14 51° N 17:46:50 25° ENE visible
21 Dec -0.4 19:18:39 10° WNW 19:19:36 18° WNW 19:19:36 18° WNW visible
22 Dec -3.3 18:27:45 10° WNW 18:31:02 79° SSW 18:31:02 79° SSW visible
23 Dec -3.4 17:36:50 10° WNW 17:40:08 74° NNE 17:42:33 17° ESE visible
23 Dec -0.7 19:13:42 10° W 19:15:19 21° WSW 19:15:19 21° WSW visible
24 Dec -2.1 18:22:31 10° WNW 18:25:38 40° SSW 18:26:58 26° SSE visible
25 Dec -2.9 17:31:25 10° WNW 17:34:41 64° SSW 17:37:56 10° SE visible
25 Dec -0.3 19:09:17 10° WSW 19:10:43 12° SW 19:11:37 11° SSW visible
26 Dec -0.7 18:17:22 10° W 18:19:51 20° SW 18:22:20 10° S visible
27 Dec -1.4 17:25:54 10° W 17:28:53 32° SW 17:31:51 10° SSE visible
